Lid_Strength_Index
-0 -0 -0 -0 -0 -0 -0 -0 -0 -0 -0 -0 -0 -1 -1 -0 1 7 9 6 4 -1 -0 7 8 8 9 9 9 11 13 15 15 15 14 12 13 14 14 14 15 14 14 13 13
1 0 -0 -0 -0 -0 -0 -0 -0 -0 -0 -0 -0 -1 -0 0 8 9 3 0 -1 -1 8 8 9 9 10 11 11 13 14 14 13 14 14 13 13 13 14 15 16 16 15 14 14
1 1 0 -0 0 -0 -0 -0 0 -0 -0 -0 -0 -0 0 2 9 10 0 -1 -1 1 7 8 9 10 11 11 12 13 15 13 12 12 12 12 14 13 14 15 15 16 15 15 15
2 2 1 0 0 -0 -0 -0 0 -0 -0 -0 0 -0 1 6 13 8 0 0 1 5 8 9 10 11 12 12 12 13 13 12 11 11 12 13 13 14 14 13 14 14 14 16 16
2 2 2 1 0 0 -0 -0 0 -0 0 -0 0 0 4 8 10 6 2 4 8 8 9 10 10 12 13 13 12 13 13 11 11 11 12 12 12 13 14 15 15 15 15 16 16
1 1 1 1 1 0 -0 -0 0 0 0 -0 -0 1 6 11 6 7 8 8 8 8 10 9 11 10 12 12 12 13 12 12 11 11 12 12 14 14 14 16 16 16 16 17 17
1 1 1 1 1 0 0 0 0 0 0 -0 -0 4 8 9 7 8 7 9 9 9 10 10 10 11 11 13 12 12 13 13 13 12 12 13 14 14 15 16 16 17 17 17 17
2 2 1 1 1 1 0 0 1 0 -0 -0 -0 6 9 6 6 7 8 9 8 8 9 9 9 10 12 11 12 14 14 15 14 13 13 14 15 13 15 16 17 17 18 17 17
2 2 1 1 1 1 1 1 1 0 -1 -1 5 7 10 4 7 7 9 9 9 9 9 8 9 12 12 14 15 15 16 17 14 13 14 14 15 13 15 16 16 17 18 17 18
2 2 1 1 1 1 1 1 1 1 2 3 6 8 9 9 7 7 9 9 10 9 9 10 12 13 14 14 16 16 17 17 17 15 15 16 15 12 15 16 15 16 17 18 18
3 2 2 1 1 1 3 8 9 11 10 10 11 10 9 7 7 8 9 9 10 11 12 12 13 14 14 14 14 15 17 17 16 14 15 15 15 13 12 16 16 16 17 17 17
3 3 2 2 1 1 7 10 10 10 12 10 10 10 8 8 10 9 9 11 12 13 13 13 14 13 13 13 15 16 17 17 16 16 16 16 16 14 13 14 15 15 16 17 17
3 3 2 1 2 6 9 10 7 8 13 11 10 10 9 8 10 10 10 12 13 14 14 14 13 12 13 15 15 17 17 18 17 17 17 18 18 18 15 15 14 14 14 16 17
3 3 2 2 6 9 9 8 7 9 17 15 12 10 9 10 11 10 11 12 14 13 14 13 13 14 15 15 15 17 16 17 17 19 20 17 20 19 16 16 16 15 16 16 17
3 3 2 3 7 9 8 7 8 12 22 14 12 9 10 12 12 12 11 12 14 13 13 13 15 15 15 15 15 16 16 18 18 19 21 21 22 20 20 18 14 15 15 16 17
3 3 3 6 8 9 8 9 11 16 21 15 11 12 12 12 13 12 13 12 13 13 14 14 15 15 14 15 16 15 17 18 20 21 23 20 20 22 20 18 16 16 17 17 18
3 3 4 6 8 8 8 11 16 20 15 16 13 13 14 13 13 13 14 15 14 16 16 15 15 16 14 16 15 16 17 20 22 23 21 22 23 19 17 17 16 16 17 18 19
4 4 4 5 8 8 10 12 19 17 17 14 14 14 14 13 14 14 15 15 14 15 17 16 17 16 15 14 15 17 16 19 24 24 21 23 23 19 17 16 18 19 18 18 20
2 5 6 6 8 8 12 17 17 16 15 14 14 15 15 14 13 14 15 16 13 13 13 16 16 16 16 16 16 18 19 17 20 29 26 20 20 18 17 18 18 19 18 19 21
5 6 6 5 6 9 17 15 15 12 13 13 16 14 17 15 15 15 16 15 14 13 12 13 15 17 18 18 19 18 16 19 20 24 28 22 21 19 16 17 16 19 20 20 21
6 9 8 7 7 9 14 16 16 12 12 14 16 17 16 16 16 18 16 15 14 15 13 13 13 17 18 19 19 20 19 20 19 20 23 26 20 18 16 15 15 17 19 20 20
7 11 8 6 11 11 14 15 12 13 12 12 13 14 15 15 16 17 16 13 12 13 14 14 14 16 16 19 19 17 17 17 19 20 22 21 19 17 16 15 16 17 18 20 20
9 9 8 8 14 14 15 14 13 14 14 13 14 13 12 13 14 14 13 12 12 12 13 13 15 17 17 19 19 19 17 17 17 19 21 20 19 17 18 17 18 18 19 20 20
9 13 11 11 11 14 14 15 15 13 13 14 14 13 15 15 14 15 16 14 14 13 11 11 14 17 18 18 18 19 19 17 16 19 17 19 17 15 13 13 12 16 20 20 20
8 11 11 15 13 12 13 14 15 16 13 13 14 14 15 16 15 15 15 16 16 14 15 14 16 16 15 15 18 18 18 18 20 18 18 17 17 15 13 12 12 12 15 20 21
8 10 11 12 12 12 12 14 15 15 14 15 14 14 13 15 14 15 14 15 15 18 18 17 17 16 17 16 17 17 17 16 19 18 18 17 17 12 11 11 12 12 15 19 20
4 6 8 11 12 13 13 14 13 12 12 12 13 13 14 14 12 11 12 13 13 15 19 19 19 22 19 18 18 19 18 15 15 14 16 19 16 12 13 12 12 12 17 18 19